COSMOS 2251 DEB, 35440

Orbit data source: Space-Track

COSMOS 2251 DEB, 35440 is space debris in LEO originally from a launch on Wed, 16 Jun 1993 UTC launched from the Plesetsk Missile And Space Complex (PKMTR). The debris from Iridium 33, an American commercial communications satellite, has been tracked extensively since its accidental collision with the defunct Russian satellite Cosmos 2251 in 2009. This event, occurring at high speed in low Earth orbit (LEO), generated thousands of pieces of space debris, significantly increasing the risk of further collisions. The Iridium 33 debris cloud has impacted space traffic management and orbital debris mitigation strategies, making it a subject of ongoing study in space situational awareness.

Loading next visibility...
Identifier
35440, 1993-036AKJ
Orbit
LEO
Country
Flag of CISCIS
Related business
Manufacturer
Unknown
Mission
Spacecraft
Bus & Motor
Unknown
Mass
Unknown
Launch date (UTC)
1993-06-16 (33 years ago)
Launch vehicle
Unknown
Launch site
Plesetsk Missile And Space Complex (PKMTR)
Object type
Payload
Rocket body
Debris
Shape & HBR
Unknown shape, 0.1 m
Radar Cross Section
Small (<0.1 m²)

Expand to show TLE details & history
Last TLE update: 6 days ago

TLE from 6 days ago
0 COSMOS 2251 DEB
1 35440U 93036AKJ 26202.11137169  .00001118  00000-0  18561-3 0  9993
2 35440  74.0148 140.1458 0069671 227.4100 132.1181 14.69912274720023
Epoch: 2026-07-21T02:40Z
TLE epoch observation values (Epoch: 2026-07-21T02:40:22.514Z)
Latitude
-0.00001°
Longitude
161.16624°
Altitude
697.084 km
Speed
7.49 km/s
True Right ascension
09h 20m 34s
True Declination
0° 00' 00"
Sunlit
Object was in daylight at epoch
Visualization orbit readout
Latitude
Unknown
Longitude
Unknown
Altitude
Unknown
Speed
Unknown
Apparent Right ascension
Unknown
Apparent Declination
Unknown
Sunlit
N/A
Visualization observer readout
Local Sidereal Time
06:33:14
Azimuth
Unknown
Elevation
Unknown
Doppler factor
Unknown
Orbital elements
Apogee altitude
707.964 km
Perigee altitude
609.908 km
Semi-major axis
7,037.073 km
Eccentricity
0.00697
Inclination
74.0148°
RAAN
140.1458°
Arg. of periapsis
227.41°
True anomaly
132.70685°
Mean anomaly
132.1181°
Eccentric anomaly
132.41282°
Mean motion
3.67667 °/min
Orbital period
97.91 mins
BSTAR
0.00018561
Loading maneuver chart data...
Computing Atmospheric mass density...

Documentation

Showing up to 5 results
|